CPV1026 SBSP-SBFL

Flight info

Callsign CPV1026
Flight time 0h 50m
Altitude 32000
Route MADNI UZ92 PUBIS
Aircraft B738/M-SDE3/L

Departure

Time 2026-04-20 19:47
Airport Congonhas–Deputado Freitas Nobre Airport (SBSP)

Arrival

Time 2026-04-20 20:37
Airport Hercílio Luz International Airport (SBFL)
Time Latitude Longitude Altitude Speed Heading
2026-04-20 19:30 -23.62509 -46.65963 2599 ft 0 kts 237°
2026-04-20 19:40 -23.62497 -46.65943 2600 ft 3 kts 241°
2026-04-20 19:41 -23.62492 -46.65930 2600 ft 2 kts 281°
2026-04-20 19:41 -23.62497 -46.65919 2600 ft 2 kts 322°
2026-04-20 19:41 -23.62506 -46.65912 2600 ft 2 kts 326°
2026-04-20 19:41 -23.62508 -46.65911 2600 ft 0 kts 326°
2026-04-20 19:43 -23.62505 -46.65912 2600 ft 3 kts 334°
2026-04-20 19:43 -23.62436 -46.65921 2600 ft 17 kts 341°
2026-04-20 19:44 -23.62302 -46.66006 2599 ft 26 kts 327°
2026-04-20 19:44 -23.62162 -46.66095 2594 ft 17 kts 327°
2026-04-20 19:44 -23.62128 -46.66119 2590 ft 0 kts 326°
2026-04-20 19:45 -23.62091 -46.66135 2597 ft 8 kts 349°
2026-04-20 19:45 -23.62044 -46.66105 2589 ft 2 kts 84°
2026-04-20 19:45 -23.62048 -46.66087 2595 ft 3 kts 109°
2026-04-20 19:46 -23.62066 -46.66065 2590 ft 5 kts 143°
2026-04-20 19:46 -23.62285 -46.65911 2599 ft 77 kts 147°
2026-04-20 19:46 -23.62947 -46.65459 2608 ft 145 kts 148°
2026-04-20 19:46 -23.63936 -46.64780 2935 ft 183 kts 149°
2026-04-20 19:47 -23.65055 -46.64061 4051 ft 174 kts 149°
2026-04-20 19:47 -23.66147 -46.63688 5218 ft 166 kts 186°
2026-04-20 19:47 -23.67350 -46.64037 5671 ft 196 kts 190°
2026-04-20 19:47 -23.68791 -46.64196 5934 ft 222 kts 184°
2026-04-20 19:48 -23.70422 -46.64368 6229 ft 246 kts 186°
2026-04-20 19:48 -23.72221 -46.64585 6583 ft 270 kts 186°
2026-04-20 19:48 -23.74102 -46.64825 7175 ft 272 kts 190°
2026-04-20 19:48 -23.75819 -46.65628 7438 ft 268 kts 218°
2026-04-20 19:49 -23.76993 -46.67246 7472 ft 281 kts 243°
2026-04-20 19:49 -23.77479 -46.69290 7467 ft 288 kts 269°
2026-04-20 19:49 -23.77397 -46.71467 7466 ft 285 kts 262°
2026-04-20 19:49 -23.78112 -46.73424 7501 ft 276 kts 234°
2026-04-20 19:50 -23.79245 -46.75120 7522 ft 278 kts 230°
2026-04-20 19:50 -23.80483 -46.76772 8042 ft 284 kts 229°
2026-04-20 19:50 -23.81702 -46.78459 8993 ft 284 kts 231°
2026-04-20 19:50 -23.82870 -46.80201 9892 ft 286 kts 232°
2026-04-20 19:51 -23.84015 -46.82011 10545 ft 297 kts 233°
2026-04-20 19:51 -23.85224 -46.83970 10729 ft 323 kts 234°
2026-04-20 19:51 -23.86532 -46.86059 11054 ft 339 kts 229°
2026-04-20 19:51 -23.88333 -46.87713 11651 ft 341 kts 206°
2026-04-20 19:52 -23.90566 -46.88519 12404 ft 339 kts 188°
2026-04-20 19:52 -23.92893 -46.88925 13204 ft 340 kts 187°
2026-04-20 19:52 -23.95245 -46.89327 13896 ft 344 kts 187°
2026-04-20 19:52 -23.97596 -46.89724 14504 ft 347 kts 187°
2026-04-20 19:53 -24.00002 -46.90133 15140 ft 350 kts 187°
2026-04-20 19:53 -24.02423 -46.90551 15757 ft 353 kts 187°
2026-04-20 19:53 -24.04864 -46.90977 16388 ft 356 kts 188°
2026-04-20 19:53 -24.07321 -46.91408 17014 ft 359 kts 188°
2026-04-20 19:54 -24.09808 -46.91847 17623 ft 363 kts 188°
2026-04-20 19:54 -24.12280 -46.92284 18237 ft 366 kts 188°
2026-04-20 19:54 -24.14836 -46.92736 18769 ft 369 kts 188°
2026-04-20 19:54 -24.17390 -46.93189 19237 ft 374 kts 188°
2026-04-20 19:55 -24.19971 -46.93647 19710 ft 378 kts 188°
2026-04-20 19:55 -24.22580 -46.94111 20190 ft 382 kts 188°
2026-04-20 19:55 -24.25219 -46.94580 20660 ft 386 kts 189°
2026-04-20 19:55 -24.27846 -46.95047 21117 ft 390 kts 189°
2026-04-20 19:56 -24.29663 -46.95370 21434 ft 393 kts 189°
2026-04-20 19:56 -24.33258 -46.96009 22031 ft 398 kts 189°
2026-04-20 19:56 -24.36001 -46.96497 22481 ft 402 kts 189°
2026-04-20 19:56 -24.38772 -46.96990 22925 ft 405 kts 189°
2026-04-20 19:57 -24.41573 -46.97489 23372 ft 409 kts 189°
2026-04-20 19:57 -24.44390 -46.97991 23778 ft 412 kts 190°
2026-04-20 19:57 -24.46311 -46.98333 24018 ft 414 kts 190°
2026-04-20 19:57 -24.50099 -46.99008 24514 ft 418 kts 190°
2026-04-20 19:58 -24.52009 -46.99348 24759 ft 419 kts 190°
2026-04-20 19:58 -24.54894 -46.99862 25121 ft 422 kts 190°
2026-04-20 19:58 -24.57802 -47.00381 25478 ft 424 kts 190°
2026-04-20 19:58 -24.60703 -47.01042 25811 ft 427 kts 200°
2026-04-20 19:59 -24.63314 -47.02572 26143 ft 427 kts 216°
2026-04-20 19:59 -24.65751 -47.04443 26540 ft 428 kts 215°
2026-04-20 19:59 -24.68243 -47.06261 26865 ft 431 kts 214°
2026-04-20 19:59 -24.70771 -47.08059 27169 ft 434 kts 213°
2026-04-20 20:00 -24.73317 -47.09853 27578 ft 434 kts 213°
2026-04-20 20:00 -24.75858 -47.11641 28095 ft 432 kts 213°
2026-04-20 20:00 -24.78379 -47.13419 28613 ft 430 kts 214°
2026-04-20 20:00 -24.80890 -47.15196 29062 ft 429 kts 214°
2026-04-20 20:01 -24.83403 -47.16978 29487 ft 429 kts 214°
2026-04-20 20:01 -24.85914 -47.18763 29936 ft 429 kts 214°
2026-04-20 20:01 -24.88424 -47.20548 30389 ft 427 kts 214°
2026-04-20 20:01 -24.90879 -47.22295 30858 ft 424 kts 214°
2026-04-20 20:02 -24.93345 -47.24050 31353 ft 420 kts 214°
2026-04-20 20:02 -24.95791 -47.25793 31831 ft 417 kts 214°
2026-04-20 20:02 -24.98225 -47.27528 32060 ft 418 kts 213°
2026-04-20 20:03 -25.03105 -47.31009 32068 ft 416 kts 214°
2026-04-20 20:03 -25.07991 -47.34497 32084 ft 423 kts 214°
2026-04-20 20:04 -25.12974 -47.38057 32089 ft 435 kts 214°
2026-04-20 20:04 -25.18127 -47.41740 32087 ft 445 kts 214°
2026-04-20 20:05 -25.23344 -47.45475 32070 ft 446 kts 214°
2026-04-20 20:05 -25.28541 -47.49205 32074 ft 445 kts 214°
2026-04-20 20:06 -25.33743 -47.52942 32072 ft 445 kts 214°
2026-04-20 20:06 -25.38927 -47.56668 32075 ft 444 kts 214°
2026-04-20 20:07 -25.44104 -47.60396 32076 ft 444 kts 214°
2026-04-20 20:07 -25.49241 -47.64099 32078 ft 443 kts 214°
2026-04-20 20:08 -25.54403 -47.67822 32081 ft 443 kts 214°
2026-04-20 20:08 -25.59545 -47.71534 32059 ft 433 kts 214°
2026-04-20 20:08 -25.62018 -47.73319 32061 ft 415 kts 214°
2026-04-20 20:09 -25.64398 -47.75038 32058 ft 402 kts 214°
2026-04-20 20:09 -25.69072 -47.78421 31899 ft 403 kts 214°
2026-04-20 20:09 -25.71385 -47.80097 31631 ft 399 kts 214°
2026-04-20 20:10 -25.73703 -47.81775 31226 ft 396 kts 214°
2026-04-20 20:10 -25.76000 -47.83439 30868 ft 393 kts 215°
2026-04-20 20:10 -25.78283 -47.85094 30483 ft 391 kts 215°
2026-04-20 20:10 -25.80558 -47.86744 30056 ft 390 kts 215°
2026-04-20 20:11 -25.82820 -47.88385 29618 ft 387 kts 215°
2026-04-20 20:11 -25.85067 -47.90015 29193 ft 384 kts 215°
2026-04-20 20:11 -25.87298 -47.91635 28779 ft 382 kts 215°
2026-04-20 20:11 -25.89515 -47.93246 28371 ft 379 kts 215°
2026-04-20 20:12 -25.91712 -47.94842 27977 ft 376 kts 215°
2026-04-20 20:12 -25.93894 -47.96429 27580 ft 373 kts 214°
2026-04-20 20:12 -25.96063 -47.98006 27185 ft 371 kts 214°
2026-04-20 20:13 -26.00338 -48.01118 26423 ft 367 kts 214°
2026-04-20 20:13 -26.02471 -48.02671 26034 ft 365 kts 214°
2026-04-20 20:13 -26.04722 -48.03978 25527 ft 369 kts 202°
2026-04-20 20:13 -26.07163 -48.04892 25095 ft 369 kts 199°
2026-04-20 20:14 -26.09614 -48.05762 24676 ft 369 kts 199°
2026-04-20 20:14 -26.12059 -48.06632 24282 ft 368 kts 199°
2026-04-20 20:14 -26.14488 -48.07509 23897 ft 366 kts 200°
2026-04-20 20:14 -26.16909 -48.08396 23485 ft 365 kts 200°
2026-04-20 20:15 -26.19314 -48.09287 23065 ft 363 kts 200°
2026-04-20 20:15 -26.21702 -48.10177 22671 ft 360 kts 200°
2026-04-20 20:15 -26.24069 -48.11063 22287 ft 357 kts 200°
2026-04-20 20:15 -26.26418 -48.11944 21915 ft 355 kts 199°
2026-04-20 20:16 -26.28717 -48.12808 21552 ft 352 kts 200°
2026-04-20 20:16 -26.31028 -48.13677 21188 ft 349 kts 199°
2026-04-20 20:16 -26.33321 -48.14541 20829 ft 346 kts 199°
2026-04-20 20:16 -26.35599 -48.15398 20472 ft 344 kts 199°
2026-04-20 20:17 -26.37864 -48.16251 20116 ft 342 kts 199°
2026-04-20 20:17 -26.40113 -48.17098 19757 ft 340 kts 199°
2026-04-20 20:17 -26.42343 -48.17938 19408 ft 338 kts 199°
2026-04-20 20:17 -26.44569 -48.18778 19056 ft 336 kts 199°
2026-04-20 20:18 -26.46780 -48.19612 18696 ft 335 kts 199°
2026-04-20 20:18 -26.48987 -48.20445 18343 ft 334 kts 198°
2026-04-20 20:18 -26.51179 -48.21272 17941 ft 332 kts 198°
2026-04-20 20:18 -26.53360 -48.22096 17574 ft 330 kts 198°
2026-04-20 20:19 -26.55525 -48.22914 17215 ft 327 kts 198°
2026-04-20 20:19 -26.57676 -48.23726 16864 ft 325 kts 198°
2026-04-20 20:19 -26.59808 -48.24532 16529 ft 322 kts 198°
2026-04-20 20:19 -26.61925 -48.25333 16178 ft 320 kts 198°
2026-04-20 20:20 -26.64027 -48.26128 15843 ft 317 kts 198°
2026-04-20 20:20 -26.66115 -48.26918 15510 ft 315 kts 198°
2026-04-20 20:20 -26.68189 -48.27703 15179 ft 314 kts 198°
2026-04-20 20:20 -26.70252 -48.28484 14849 ft 312 kts 198°
2026-04-20 20:21 -26.72277 -48.29251 14520 ft 310 kts 198°
2026-04-20 20:21 -26.74316 -48.30023 14192 ft 309 kts 198°
2026-04-20 20:21 -26.76350 -48.30795 13855 ft 308 kts 198°
2026-04-20 20:21 -26.78380 -48.31565 13489 ft 307 kts 198°
2026-04-20 20:22 -26.80396 -48.32331 13139 ft 305 kts 198°
2026-04-20 20:22 -26.82400 -48.33092 12801 ft 303 kts 198°
2026-04-20 20:22 -26.84395 -48.33850 12468 ft 301 kts 198°
2026-04-20 20:22 -26.86369 -48.34600 12136 ft 299 kts 198°
2026-04-20 20:23 -26.88334 -48.35347 11809 ft 297 kts 198°
2026-04-20 20:23 -26.90286 -48.36090 11484 ft 296 kts 198°
2026-04-20 20:23 -26.92231 -48.36831 11161 ft 294 kts 199°
2026-04-20 20:23 -26.94095 -48.37723 10957 ft 290 kts 207°
2026-04-20 20:24 -26.95852 -48.38834 10773 ft 289 kts 210°
2026-04-20 20:24 -26.97578 -48.39987 10593 ft 289 kts 210°
2026-04-20 20:24 -26.99307 -48.41142 10408 ft 289 kts 210°
2026-04-20 20:24 -27.01018 -48.42272 10220 ft 285 kts 210°
2026-04-20 20:25 -27.02717 -48.43383 10001 ft 281 kts 210°
2026-04-20 20:25 -27.04385 -48.44465 9838 ft 274 kts 209°
2026-04-20 20:25 -27.06026 -48.45525 9663 ft 271 kts 209°
2026-04-20 20:25 -27.07659 -48.46577 9506 ft 270 kts 209°
2026-04-20 20:26 -27.09314 -48.47641 9338 ft 272 kts 209°
2026-04-20 20:26 -27.10961 -48.48699 9139 ft 274 kts 209°
2026-04-20 20:26 -27.12619 -48.49763 8960 ft 275 kts 209°
2026-04-20 20:26 -27.14285 -48.50833 8783 ft 276 kts 209°
2026-04-20 20:27 -27.15956 -48.51906 8606 ft 277 kts 209°
2026-04-20 20:27 -27.17622 -48.52977 8434 ft 275 kts 209°
2026-04-20 20:27 -27.19254 -48.54026 8257 ft 272 kts 209°
2026-04-20 20:27 -27.20882 -48.55074 8091 ft 268 kts 210°
2026-04-20 20:28 -27.21992 -48.55737 7961 ft 268 kts 203°
2026-04-20 20:28 -27.24323 -48.56647 7731 ft 268 kts 197°
2026-04-20 20:28 -27.26120 -48.57243 7542 ft 269 kts 196°
2026-04-20 20:28 -27.27919 -48.57839 7355 ft 270 kts 197°
2026-04-20 20:29 -27.29725 -48.58448 7164 ft 271 kts 197°
2026-04-20 20:29 -27.31537 -48.59070 6973 ft 272 kts 197°
2026-04-20 20:29 -27.33352 -48.59700 6782 ft 273 kts 197°
2026-04-20 20:29 -27.35171 -48.60336 6578 ft 274 kts 198°
2026-04-20 20:30 -27.36991 -48.60976 6373 ft 274 kts 198°
2026-04-20 20:30 -27.38812 -48.61619 6163 ft 273 kts 198°
2026-04-20 20:30 -27.40609 -48.62254 5955 ft 268 kts 198°
2026-04-20 20:30 -27.42379 -48.62880 5760 ft 265 kts 197°
2026-04-20 20:31 -27.44129 -48.63500 5561 ft 264 kts 197°
2026-04-20 20:31 -27.45881 -48.64122 5388 ft 263 kts 197°
2026-04-20 20:31 -27.47601 -48.64733 5203 ft 262 kts 197°
2026-04-20 20:31 -27.49325 -48.65355 4985 ft 258 kts 200°
2026-04-20 20:32 -27.50934 -48.66274 4633 ft 261 kts 211°
2026-04-20 20:32 -27.52474 -48.67368 4279 ft 263 kts 212°
2026-04-20 20:32 -27.54010 -48.68454 4100 ft 254 kts 212°
2026-04-20 20:32 -27.55474 -48.69464 3997 ft 239 kts 208°
2026-04-20 20:33 -27.57018 -48.69897 3864 ft 224 kts 175°
2026-04-20 20:33 -27.58430 -48.69348 3778 ft 209 kts 149°
2026-04-20 20:33 -27.59485 -48.68306 3668 ft 197 kts 128°
2026-04-20 20:33 -27.60206 -48.67051 3548 ft 186 kts 122°
2026-04-20 20:34 -27.60857 -48.65813 3300 ft 180 kts 122°
2026-04-20 20:34 -27.61482 -48.64618 3064 ft 168 kts 122°
2026-04-20 20:34 -27.62081 -48.63538 2746 ft 164 kts 121°
2026-04-20 20:34 -27.62651 -48.62425 2384 ft 159 kts 121°
2026-04-20 20:35 -27.63210 -48.61346 1923 ft 158 kts 120°
2026-04-20 20:35 -27.63703 -48.60348 1690 ft 136 kts 119°
2026-04-20 20:35 -27.64146 -48.59440 1363 ft 130 kts 119°
2026-04-20 20:35 -27.64589 -48.58556 941 ft 132 kts 117°
2026-04-20 20:36 -27.65033 -48.57672 643 ft 129 kts 121°
2026-04-20 20:36 -27.65556 -48.56797 512 ft 138 kts 124°
2026-04-20 20:36 -27.66104 -48.55903 342 ft 140 kts 123°
2026-04-20 20:36 -27.66634 -48.54979 39 ft 138 kts 118°
2026-04-20 20:37 -27.67117 -48.54082 33 ft 133 kts 121°
2026-04-20 20:37 -27.67400 -48.53567 20 ft 22 kts 124°
2026-04-20 20:37 -27.67477 -48.53424 25 ft 20 kts 140°
2026-04-20 20:37 -27.67501 -48.53411 23 ft 3 kts 134°
2026-04-20 20:38 -27.67514 -48.53382 24 ft 4 kts 115°
2026-04-20 20:38 -27.67523 -48.53360 28 ft 7 kts 115°
2026-04-20 20:38 -27.67578 -48.53248 26 ft 25 kts 121°
2026-04-20 20:38 -27.67723 -48.53194 23 ft 17 kts 215°
2026-04-20 20:39 -27.67760 -48.53263 22 ft 16 kts 272°
2026-04-20 20:39 -27.67709 -48.53373 22 ft 16 kts 301°
2026-04-20 20:39 -27.67652 -48.53475 26 ft 16 kts 303°
2026-04-20 20:39 -27.67577 -48.53610 22 ft 26 kts 300°
2026-04-20 20:40 -27.67477 -48.53802 22 ft 28 kts 301°
2026-04-20 20:40 -27.67378 -48.53987 21 ft 27 kts 302°
2026-04-20 20:40 -27.67284 -48.54156 26 ft 24 kts 301°
2026-04-20 20:40 -27.67217 -48.54295 27 ft 16 kts 277°
2026-04-20 20:41 -27.67262 -48.54356 29 ft 10 kts 212°
2026-04-20 20:41 -27.67309 -48.54413 26 ft 10 kts 219°
2026-04-20 20:41 -27.67340 -48.54436 27 ft 0 kts 212°